sat.trackr.live / text

‹ back to catalog

STARLINK-35205

NORAD 65679 · 2025-212D

PAYLOAD ACTIVE UNKNOWN

§ Identity

Operator
Country
US
Launch date
2025-09-21
Launch site
AFETR
Launch vehicle
Mass (kg)
RCS (m²)

Purposes: comms

External: N2YO · Heavens-Above · Gunter

§ Orbital elements

Epoch: 2026-09-20T07:13:14.725632Z

Period
93.85 min
Inclination
53.1589°
Eccentricity
0.0001322
Mean motion
15.34401813 rev/d
Perigee alt
461.8 km
Apogee alt
463.6 km
Semi-major
6,840.8 km
B*
4.1969e-4
RAAN
158.5899°
Arg perigee
106.9250°
Mean anomaly
253.1898°
Rev number
5,703

§ Raw data

STARLINK-352051 65679U 25212D   26263.30086488  .00013831  00000+0  41969-3 0  99982 65679  53.1589 158.5899 0001322 106.9250 253.1898 15.34401813 57033

JSON: /api/v1/satellites/65679 · /tle

For live sub-satellite position, see the globe view (requires WebGL).

§ Visibility from observer

Set your observer location to see the next 7 days of passes ≥ 10°. The values pass through the URL so the page stays shareable.

No JS? Fill the form by hand. The geolocation button needs JavaScript.